TITAN 3C TRANSTAGE DEB, 38702

Orbit data source: Space-Track

TITAN 3C TRANSTAGE DEB, 38702 is space debris in GEO originally from a launch on Thu, 26 Sep 1968 UTC launched from the Air Force Eastern Test Range (AFETR). Debris objects in space refer to the collection of defunct objects orbiting the Earth. Examples of debris include non-operational satellites, rocket bodies, and fragments generated from explosions, collisions, or faulty payload assembly.

Loading next visibility...
Identifier
38702, 1968-081AC
Orbit
GEO
Country
Flag of USUS
Related business
Manufacturer
Unknown
Mission
Spacecraft
Bus & Motor
Unknown
Mass
Unknown
Launch date (UTC)
1968-09-26 (58 years ago)
Launch vehicle
Unknown
Launch site
Air Force Eastern Test Range (AFETR)
Object type
Payload
Rocket body
Debris
Shape & HBR
Unknown shape, 1.1 m
Radar Cross Section
Medium (>0.1 m² and <1 m²)

Expand to show TLE details & history
Last TLE update: 2 days ago

TLE from 2 days ago
0 TITAN 3C TRANSTAGE DEB
1 38702U 68081AC  26256.63809172 -.00000003  00000-0  00000+0 0  9993
2 38702   1.3131  52.2025 0222295  37.8872 324.5559  1.02228046 70627
Epoch: 2026-09-13T15:18Z
TLE epoch observation values (Epoch: 2026-09-13T15:18:51.124Z)
Latitude
-0.00002°
Longitude
-169.20915°
Altitude
34,504.058 km
Speed
3.15 km/s
True Right ascension
03h 32m 32s
True Declination
0° 00' 00"
Sunlit
Object was in daylight at epoch
Visualization orbit readout
Latitude
Unknown
Longitude
Unknown
Altitude
Unknown
Speed
Unknown
Apparent Right ascension
Unknown
Apparent Declination
Unknown
Sunlit
N/A
Visualization observer readout
Local Sidereal Time
03:23:35
Azimuth
Unknown
Elevation
Unknown
Doppler factor
Unknown
Orbital elements
Apogee altitude
36,173.361 km
Perigee altitude
34,322.703 km
Semi-major axis
41,626.169 km
Eccentricity
0.02223
Inclination
1.3131°
RAAN
52.2025°
Arg. of periapsis
37.8872°
True anomaly
323.04469°
Mean anomaly
324.5559°
Eccentric anomaly
323.80374°
Mean motion
0.25556 °/min
Orbital period
1,408.67 mins
BSTAR
0
Loading maneuver chart data...
Computing Atmospheric mass density...

Documentation

Showing up to 5 results
|